Back to catalog

STARLINK-32620

AliveCommunicationsVLEO
NORAD 61928·PAYLOAD·🇺🇸 United States

Launched Nov 11, 2024 from Cape Canaveral Space Force Station

Loading…

Next Passes (next 24 hours)

TLE

FreshSource: CelesTrak SupGP

Epoch: Sep 15, 2026, 02:34 UTC

1 61928C 24207S   26258.10743056  .00020634  00000+0  74727-3 0  2582
2 61928  42.9999 292.0129 0001347 262.8209   2.3280 15.27572116    12

Track STARLINK-32620 in real time with AllMySat

Download on the App Store